SVA62 CYYZ-OEJN

Flight info

Callsign SVA62
Flight time N/A
Altitude 33000
Route VERDO7 IPTOS Q921 AGLUK DCT ANCER N749A LOMSI/M084F330 NATY BEXET/N0491F330 DCT DIRUM DCT MORAG DCT NUCHU L607 BIG L15 MOTOX DCT RUCAC DCT LESDO DCT ETINO DCT DEVDI DCT RIPUS DCT RESIA DCT LABIN DCT VAKSU DCT RODON DCT DIMIS DCT SALUN N705 BOPIX N710 TAKRI P751 LXR M999 MUVOL
Aircraft B77W/H-SDE1E2E3FGHIJ2J3J4J5M1RWXY/LB1D1

Departure

Time N/A
Airport Toronto Pearson International Airport (CYYZ)

Arrival

Time 2026-05-01 13:45
Airport King Abdulaziz International Airport (OEJN)
Time Latitude Longitude Altitude Speed Heading
2026-05-01 12:48 25.14015 33.78123 36884 ft 565 kts 127°
2026-05-01 12:48 25.11818 33.81734 36878 ft 565 kts 127°
2026-05-01 12:49 25.07424 33.88950 36876 ft 565 kts 127°
2026-05-01 12:49 25.03053 33.96113 36870 ft 565 kts 127°
2026-05-01 12:50 24.98657 34.03309 36874 ft 565 kts 127°
2026-05-01 12:50 24.94274 34.10471 36872 ft 564 kts 127°
2026-05-01 12:51 24.89874 34.17653 36884 ft 564 kts 127°
2026-05-01 12:52 24.83268 34.28413 36892 ft 564 kts 127°
2026-05-01 12:52 24.76678 34.39124 36879 ft 563 kts 127°
2026-05-01 12:53 24.70095 34.49799 36865 ft 563 kts 127°
2026-05-01 12:54 24.65694 34.56922 36883 ft 562 kts 127°
2026-05-01 12:54 24.59117 34.67549 36896 ft 561 kts 127°
2026-05-01 12:55 24.52520 34.78185 36897 ft 560 kts 127°
2026-05-01 12:56 24.48146 34.85223 36900 ft 560 kts 127°
2026-05-01 12:56 24.43737 34.92309 36898 ft 560 kts 127°
2026-05-01 12:57 24.39357 34.99336 36895 ft 560 kts 127°
2026-05-01 12:57 24.32778 35.09876 36904 ft 558 kts 128°
2026-05-01 12:58 24.28385 35.16899 36898 ft 557 kts 128°
2026-05-01 12:59 24.21810 35.27393 36902 ft 556 kts 128°
2026-05-01 12:59 24.15247 35.37847 36899 ft 556 kts 128°
2026-05-01 13:00 24.08645 35.48339 36899 ft 556 kts 128°
2026-05-01 13:01 24.02071 35.58768 36894 ft 556 kts 128°
2026-05-01 13:02 23.96210 35.68047 36890 ft 556 kts 128°
2026-05-01 13:07 23.47815 36.44038 36857 ft 553 kts 128°
2026-05-01 13:08 23.43410 36.50899 36875 ft 552 kts 128°
2026-05-01 13:08 23.38996 36.57766 36888 ft 551 kts 128°
2026-05-01 13:09 23.34624 36.64556 36892 ft 550 kts 129°
2026-05-01 13:09 23.30221 36.71387 36890 ft 550 kts 129°
2026-05-01 13:10 23.25818 36.78209 36885 ft 550 kts 129°
2026-05-01 13:10 23.21435 36.84991 36888 ft 549 kts 129°
2026-05-01 13:11 23.17023 36.91808 36892 ft 549 kts 129°
2026-05-01 13:11 23.12650 36.98557 36891 ft 549 kts 129°
2026-05-01 13:12 23.08238 37.05357 36889 ft 549 kts 129°
2026-05-01 13:12 23.03857 37.12103 36891 ft 548 kts 129°
2026-05-01 13:13 22.99435 37.18880 36877 ft 548 kts 129°
2026-05-01 13:13 22.94997 37.25624 36881 ft 547 kts 129°
2026-05-01 13:14 22.90602 37.32296 36883 ft 546 kts 129°
2026-05-01 13:14 22.86173 37.39020 36892 ft 545 kts 129°
2026-05-01 13:15 22.81784 37.45678 36892 ft 545 kts 129°
2026-05-01 13:15 22.77370 37.52366 36895 ft 545 kts 129°
2026-05-01 13:16 22.72944 37.59076 36891 ft 544 kts 129°
2026-05-01 13:16 22.70783 37.62372 36743 ft 542 kts 129°
2026-05-01 13:16 22.68589 37.65720 36404 ft 542 kts 129°
2026-05-01 13:17 22.62017 37.75747 35198 ft 547 kts 130°
2026-05-01 13:17 22.59809 37.79113 34811 ft 548 kts 130°
2026-05-01 13:18 22.55391 37.85840 33068 ft 552 kts 130°
2026-05-01 13:18 22.53162 37.89229 32012 ft 554 kts 129°
2026-05-01 13:18 22.50918 37.92640 30962 ft 555 kts 129°
2026-05-01 13:18 22.48671 37.96055 30090 ft 552 kts 129°
2026-05-01 13:19 22.46458 37.99420 29342 ft 544 kts 129°
2026-05-01 13:19 22.44306 38.02691 28636 ft 536 kts 129°
2026-05-01 13:19 22.40028 38.09181 27312 ft 520 kts 129°
2026-05-01 13:20 22.37938 38.12346 26675 ft 513 kts 129°
2026-05-01 13:20 22.35875 38.15466 26051 ft 506 kts 129°
2026-05-01 13:20 22.33861 38.18512 25442 ft 500 kts 129°
2026-05-01 13:21 22.29855 38.24566 24199 ft 489 kts 129°
2026-05-01 13:21 22.27877 38.27549 23600 ft 484 kts 129°
2026-05-01 13:21 22.25912 38.30501 22888 ft 479 kts 129°
2026-05-01 13:21 22.24001 38.33371 22270 ft 473 kts 129°
2026-05-01 13:22 22.22089 38.36242 21657 ft 467 kts 129°
2026-05-01 13:22 22.20181 38.39055 21118 ft 460 kts 130°
2026-05-01 13:22 22.18235 38.41799 20771 ft 457 kts 131°
2026-05-01 13:22 22.16290 38.44492 20565 ft 451 kts 131°
2026-05-01 13:23 22.14368 38.47147 20352 ft 445 kts 131°
2026-05-01 13:23 22.12491 38.49746 20068 ft 442 kts 131°
2026-05-01 13:23 22.10604 38.52369 19686 ft 440 kts 131°
2026-05-01 13:23 22.08739 38.54970 19159 ft 437 kts 131°
2026-05-01 13:24 22.06886 38.57559 18607 ft 433 kts 131°
2026-05-01 13:24 22.05071 38.60096 18070 ft 429 kts 131°
2026-05-01 13:24 22.03261 38.62628 17515 ft 423 kts 131°
2026-05-01 13:25 21.99688 38.67620 16402 ft 414 kts 130°
2026-05-01 13:25 21.97936 38.70066 15864 ft 410 kts 130°
2026-05-01 13:25 21.96226 38.72451 15339 ft 406 kts 130°
2026-05-01 13:25 21.94503 38.74853 14803 ft 403 kts 130°
2026-05-01 13:26 21.92805 38.77221 14532 ft 392 kts 130°
2026-05-01 13:26 21.91159 38.79518 14354 ft 379 kts 131°
2026-05-01 13:26 21.89589 38.81706 14196 ft 367 kts 131°
2026-05-01 13:26 21.88047 38.83855 14031 ft 356 kts 131°
2026-05-01 13:27 21.86550 38.85937 13884 ft 345 kts 131°
2026-05-01 13:27 21.85099 38.87955 13744 ft 335 kts 131°
2026-05-01 13:27 21.82312 38.91827 13237 ft 322 kts 131°
2026-05-01 13:28 21.79647 38.95530 13021 ft 301 kts 131°
2026-05-01 13:28 21.78394 38.97273 12985 ft 286 kts 131°
2026-05-01 13:29 21.77076 39.01121 13024 ft 280 kts 104°
2026-05-01 13:29 21.76324 39.05186 12983 ft 273 kts 105°
2026-05-01 13:30 21.74797 39.13213 12637 ft 282 kts 105°
2026-05-01 13:31 21.74000 39.17367 11867 ft 285 kts 104°
2026-05-01 13:31 21.72738 39.23664 10727 ft 283 kts 113°
2026-05-01 13:32 21.70086 39.26417 9997 ft 267 kts 162°
2026-05-01 13:33 21.64894 39.28443 8810 ft 257 kts 164°
2026-05-01 13:33 21.61628 39.29722 7997 ft 245 kts 164°
2026-05-01 13:34 21.58495 39.30944 7215 ft 237 kts 164°
2026-05-01 13:34 21.55380 39.32162 6501 ft 241 kts 164°
2026-05-01 13:35 21.52230 39.33395 5738 ft 242 kts 164°
2026-05-01 13:35 21.50675 39.34004 5325 ft 239 kts 164°
2026-05-01 13:35 21.47573 39.35222 4595 ft 237 kts 163°
2026-05-01 13:36 21.45980 39.35840 4547 ft 245 kts 164°
2026-05-01 13:36 21.44409 39.36456 4504 ft 240 kts 164°
2026-05-01 13:36 21.41338 39.37667 4506 ft 231 kts 163°
2026-05-01 13:37 21.39831 39.38173 4521 ft 229 kts 177°
2026-05-01 13:37 21.38760 39.38181 4508 ft 226 kts 191°
2026-05-01 13:37 21.36839 39.37447 4549 ft 224 kts 217°
2026-05-01 13:37 21.35829 39.36196 4433 ft 222 kts 250°
2026-05-01 13:38 21.36286 39.33126 4499 ft 222 kts 308°
2026-05-01 13:38 21.37362 39.31915 4354 ft 227 kts 313°
2026-05-01 13:38 21.38491 39.30704 4128 ft 227 kts 313°
2026-05-01 13:39 21.39590 39.29530 4059 ft 218 kts 313°
2026-05-01 13:39 21.40722 39.28522 3992 ft 212 kts 328°
2026-05-01 13:39 21.42085 39.27843 4016 ft 221 kts 334°
2026-05-01 13:39 21.43508 39.27212 4019 ft 221 kts 335°
2026-05-01 13:40 21.44941 39.26626 4002 ft 219 kts 337°
2026-05-01 13:40 21.46357 39.26068 3989 ft 211 kts 336°
2026-05-01 13:40 21.47702 39.25538 3804 ft 207 kts 336°
2026-05-01 13:40 21.49055 39.25004 3540 ft 205 kts 337°
2026-05-01 13:41 21.50384 39.24477 3274 ft 202 kts 338°
2026-05-01 13:41 21.51697 39.23960 3022 ft 199 kts 338°
2026-05-01 13:41 21.52985 39.23451 2784 ft 199 kts 338°
2026-05-01 13:41 21.54290 39.22935 2532 ft 200 kts 338°
2026-05-01 13:42 21.55568 39.22432 2248 ft 189 kts 338°
2026-05-01 13:42 21.56367 39.22114 2122 ft 178 kts 339°
2026-05-01 13:42 21.57486 39.21674 1882 ft 162 kts 339°
2026-05-01 13:42 21.58487 39.21278 1674 ft 145 kts 339°
2026-05-01 13:43 21.59400 39.20915 1522 ft 140 kts 339°
2026-05-01 13:43 21.60311 39.20556 1348 ft 136 kts 339°
2026-05-01 13:43 21.61183 39.20212 1160 ft 132 kts 340°
2026-05-01 13:43 21.62041 39.19870 1015 ft 133 kts 340°
2026-05-01 13:44 21.62896 39.19536 871 ft 128 kts 340°
2026-05-01 13:44 21.63737 39.19194 669 ft 134 kts 338°
2026-05-01 13:44 21.64615 39.18843 541 ft 134 kts 339°
2026-05-01 13:44 21.65484 39.18512 315 ft 130 kts 339°
2026-05-01 13:45 21.66335 39.18172 155 ft 131 kts 338°
2026-05-01 13:45 21.67186 39.17832 44 ft 127 kts 339°
2026-05-01 13:45 21.67929 39.17545 37 ft 81 kts 340°
2026-05-01 13:45 21.68284 39.17381 32 ft 40 kts 318°
2026-05-01 13:46 21.68431 39.17181 32 ft 18 kts 303°
2026-05-01 13:46 21.68443 39.17162 32 ft 0 kts 304°
2026-05-01 13:46 21.68452 39.17148 32 ft 4 kts 307°
2026-05-01 13:46 21.68471 39.17123 32 ft 5 kts 310°
2026-05-01 13:47 21.68499 39.17064 32 ft 14 kts 276°
2026-05-01 13:47 21.68453 39.17010 33 ft 10 kts 184°
2026-05-01 13:47 21.68386 39.17029 33 ft 11 kts 161°
2026-05-01 13:47 21.68298 39.17063 33 ft 18 kts 160°
2026-05-01 13:48 21.68139 39.17126 34 ft 28 kts 155°
2026-05-01 13:48 21.67956 39.17199 35 ft 28 kts 162°
2026-05-01 13:48 21.67784 39.17265 36 ft 26 kts 159°
2026-05-01 13:48 21.67611 39.17329 37 ft 26 kts 159°
2026-05-01 13:49 21.67444 39.17399 37 ft 26 kts 159°
2026-05-01 13:49 21.67316 39.17450 38 ft 13 kts 160°
2026-05-01 13:49 21.67237 39.17468 38 ft 11 kts 193°
2026-05-01 13:49 21.67189 39.17409 38 ft 11 kts 238°
2026-05-01 13:50 21.67137 39.17349 38 ft 11 kts 223°
2026-05-01 13:50 21.67075 39.17299 38 ft 11 kts 212°
2026-05-01 13:50 21.67004 39.17267 39 ft 11 kts 195°
2026-05-01 13:50 21.66940 39.17238 39 ft 9 kts 230°
2026-05-01 13:51 21.66932 39.17172 39 ft 6 kts 272°
2026-05-01 13:51 21.66933 39.17150 39 ft 0 kts 274°